| time (UTC) | temp C | wind direction | speed KPH | gust KPH | rain 1hr cm | rain 24hr cm | rain mn cm | humidity % | barometer mb |
| 20260507144553 | 10 | 246 | 14.5 | 24.1 | 0.00 | 0.20 | 0.03 | 74 | 1017.0 |
| 20260507144047 | 10 | 231 | 19.3 | 24.1 | 0.00 | 0.20 | 0.03 | 73 | 1017.1 |
| 20260507143547 | 9 | 255 | 19.3 | 24.1 | 0.00 | 0.20 | 0.03 | 75 | 1017.1 |
| 20260507143050 | 8 | 217 | 17.7 | 25.7 | 0.00 | 0.20 | 0.03 | 77 | 1017.1 |
| 20260507142547 | 8 | 238 | 17.7 | 25.7 | 0.00 | 0.20 | 0.03 | 78 | 1017.1 |
| 20260507142046 | 8 | 236 | 19.3 | 27.4 | 0.00 | 0.20 | 0.03 | 78 | 1017.2 |
| 20260507141552 | 7 | 250 | 19.3 | 27.4 | 0.00 | 0.20 | 0.03 | 81 | 1017.3 |
| 20260507141048 | 7 | 236 | 19.3 | 27.4 | 0.00 | 0.20 | 0.03 | 81 | 1017.4 |
| 20260507140549 | 7 | 243 | 17.7 | 25.7 | 0.00 | 0.20 | 0.03 | 83 | 1017.4 |
| 20260507140053 | 7 | 233 | 14.5 | 24.1 | 0.00 | 0.20 | 0.03 | 85 | 1017.5 |
| 20260507135546 | 6 | 259 | 16.1 | 22.5 | 0.00 | 0.23 | 0.03 | 86 | 1017.5 |
| 20260507135046 | 6 | 250 | 14.5 | 24.1 | 0.00 | 0.23 | 0.03 | 88 | 1017.5 |
| 20260507134554 | 6 | 245 | 17.7 | 24.1 | 0.00 | 0.23 | 0.03 | 88 | 1017.6 |
| 20260507134046 | 5 | 233 | 17.7 | 24.1 | 0.00 | 0.23 | 0.03 | 89 | 1017.7 |
| 20260507133549 | 5 | 254 | 17.7 | 24.1 | 0.00 | 0.23 | 0.03 | 90 | 1017.7 |
| 20260507133052 | 5 | 239 | 16.1 | 22.5 | 0.00 | 0.23 | 0.03 | 90 | 1017.8 |
| 20260507132549 | 4 | 252 | 16.1 | 24.1 | 0.00 | 0.23 | 0.03 | 91 | 1017.9 |
| 20260507132053 | 4 | 257 | 17.7 | 24.1 | 0.00 | 0.23 | 0.03 | 91 | 1017.9 |
| 20260507131600 | 3 | 246 | 11.3 | 22.5 | 0.00 | 0.23 | 0.03 | 92 | 1018.0 |
| 20260507131048 | 3 | 250 | 17.7 | 22.5 | 0.00 | 0.23 | 0.03 | 92 | 1018.0 |
| 20260507130547 | 3 | 239 | 14.5 | 19.3 | 0.00 | 0.23 | 0.03 | 92 | 1018.0 |
| 20260507130107 | 3 | 252 | 14.5 | 19.3 | 0.00 | 0.23 | 0.03 | 92 | 1018.1 |
| 20260507125548 | 3 | 244 | 14.5 | 24.1 | 0.00 | 0.23 | 0.03 | 92 | 1018.2 |
| 20260507125046 | 3 | 240 | 14.5 | 24.1 | 0.00 | 0.23 | 0.03 | 92 | 1018.2 |
| 20260507124555 | 3 | 239 | 14.5 | 24.1 | 0.00 | 0.23 | 0.03 | 92 | 1018.0 |
| 20260507124048 | 2 | 238 | 16.1 | 24.1 | 0.00 | 0.23 | 0.03 | 92 | 1018.0 |
| 20260507123548 | 2 | 204 | 16.1 | 22.5 | 0.00 | 0.23 | 0.03 | 93 | 1018.1 |
| 20260507123054 | 2 | 238 | 14.5 | 22.5 | 0.00 | 0.23 | 0.03 | 93 | 1018.0 |
| 20260507122547 | 2 | 245 | 14.5 | 22.5 | 0.00 | 0.23 | 0.03 | 93 | 1018.0 |
| 20260507122048 | 2 | 250 | 12.9 | 19.3 | 0.00 | 0.23 | 0.03 | 93 | 1018.0 |
| 20260507121607 | 2 | 253 | 12.9 | 22.5 | 0.00 | 0.23 | 0.03 | 93 | 1018.1 |
| 20260507121048 | 2 | 238 | 12.9 | 22.5 | 0.03 | 0.23 | 0.03 | 93 | 1018.0 |
| 20260507120550 | 2 | 238 | 14.5 | 19.3 | 0.03 | 0.23 | 0.03 | 93 | 1018.0 |
| 20260507115549 | 2 | 226 | 14.5 | 20.9 | 0.03 | 0.25 | 0.03 | 93 | 1018.0 |
| 20260507115048 | 2 | 238 | 14.5 | 20.9 | 0.03 | 0.25 | 0.03 | 93 | 1018.0 |
| 20260507114609 | 2 | 234 | 12.9 | 22.5 | 0.03 | 0.25 | 0.03 | 93 | 1018.0 |
| 20260507114048 | 2 | 212 | 16.1 | 24.1 | 0.03 | 0.25 | 0.03 | 93 | 1018.1 |
| 20260507113551 | 2 | 258 | 12.9 | 24.1 | 0.03 | 0.25 | 0.03 | 93 | 1018.1 |
| 20260507113052 | 2 | 260 | 16.1 | 22.5 | 0.03 | 0.25 | 0.03 | 93 | 1018.2 |
| 20260507112551 | 2 | 236 | 14.5 | 22.5 | 0.03 | 0.25 | 0.03 | 93 | 1018.2 |
| 20260507112051 | 2 | 226 | 16.1 | 24.1 | 0.03 | 0.25 | 0.03 | 93 | 1018.2 |
| 20260507111551 | 2 | 232 | 14.5 | 24.1 | 0.03 | 0.25 | 0.03 | 93 | 1018.3 |
| 20260507111050 | 2 | 248 | 16.1 | 24.1 | 0.00 | 0.23 | 0.00 | 93 | 1018.3 |
| 20260507110548 | 2 | 231 | 14.5 | 24.1 | 0.00 | 0.23 | 0.00 | 93 | 1018.4 |
| 20260507110055 | 2 | 242 | 14.5 | 20.9 | 0.00 | 0.23 | 0.00 | 93 | 1018.4 |
| 20260507105547 | 2 | 231 | 14.5 | 20.9 | 0.00 | 0.23 | 0.00 | 93 | 1018.4 |
| 20260507105048 | 2 | 231 | 14.5 | 19.3 | 0.00 | 0.23 | 0.00 | 93 | 1018.3 |
| 20260507104552 | 2 | 236 | 14.5 | 19.3 | 0.00 | 0.23 | 0.00 | 93 | 1018.3 |
| 20260507104048 | 2 | 221 | 12.9 | 19.3 | 0.00 | 0.23 | 0.00 | 93 | 1018.3 |
| 20260507103549 | 2 | 236 | 11.3 | 19.3 | 0.00 | 0.23 | 0.00 | 93 | 1018.3 |
| 20260507103054 | 1 | 240 | 11.3 | 19.3 | 0.00 | 0.23 | 0.00 | 93 | 1018.4 |
| 20260507102547 | 1 | 233 | 11.3 | 17.7 | 0.00 | 0.23 | 0.00 | 93 | 1018.5 |
| 20260507102049 | 2 | 229 | 11.3 | 17.7 | 0.00 | 0.23 | 0.00 | 93 | 1018.6 |
| 20260507101552 | 2 | 229 | 11.3 | 14.5 | 0.00 | 0.23 | 0.00 | 93 | 1018.6 |
| 20260507101048 | 2 | 239 | 9.7 | 16.1 | 0.00 | 0.23 | 0.00 | 93 | 1018.7 |
| 20260507100548 | 2 | 235 | 11.3 | 16.1 | 0.00 | 0.23 | 0.00 | 93 | 1018.8 |
| 20260507100048 | 2 | 224 | 9.7 | 16.1 | 0.00 | 0.23 | 0.00 | 93 | 1018.9 |
| 20260507095548 | 2 | 239 | 11.3 | 14.5 | 0.00 | 0.28 | 0.00 | 93 | 1019.0 |
| 20260507095048 | 2 | 231 | 9.7 | 12.9 | 0.00 | 0.28 | 0.00 | 93 | 1019.1 |
| 20260507094554 | 2 | 231 | 8.0 | 12.9 | 0.00 | 0.28 | 0.00 | 93 | 1019.2 |
| 20260507094048 | 2 | 233 | 8.0 | 12.9 | 0.00 | 0.28 | 0.00 | 93 | 1019.2 |
| 20260507093548 | 2 | 243 | 8.0 | 12.9 | 0.00 | 0.28 | 0.00 | 93 | 1019.2 |
| 20260507093056 | 2 | 232 | 8.0 | 14.5 | 0.00 | 0.28 | 0.00 | 93 | 1019.2 |
| 20260507092548 | 2 | 228 | 9.7 | 14.5 | 0.00 | 0.28 | 0.00 | 93 | 1019.2 |
| 20260507092048 | 2 | 244 | 8.0 | 12.9 | 0.00 | 0.28 | 0.00 | 93 | 1019.2 |
| 20260507091556 | 2 | 233 | 8.0 | 12.9 | 0.00 | 0.28 | 0.00 | 93 | 1019.2 |
| 20260507091048 | 2 | 224 | 8.0 | 12.9 | 0.00 | 0.28 | 0.00 | 93 | 1019.3 |
| 20260507090547 | 2 | 233 | 9.7 | 12.9 | 0.00 | 0.28 | 0.00 | 93 | 1019.4 |
| 20260507090057 | 2 | 231 | 8.0 | 12.9 | 0.00 | 0.28 | 0.00 | 93 | 1019.5 |
| 20260507085548 | 2 | 242 | 8.0 | 12.9 | 0.00 | 0.28 | 0.00 | 93 | 1019.5 |
| 20260507085047 | 2 | 228 | 8.0 | 11.3 | 0.00 | 0.28 | 0.00 | 93 | 1019.5 |
| 20260507084554 | 2 | 238 | 8.0 | 11.3 | 0.00 | 0.28 | 0.00 | 93 | 1019.6 |
| 20260507084050 | 2 | 227 | 6.4 | 11.3 | 0.00 | 0.28 | 0.00 | 93 | 1019.6 |
| 20260507083548 | 2 | 223 | 6.4 | 9.7 | 0.00 | 0.28 | 0.00 | 93 | 1019.6 |
| 20260507083053 | 2 | 236 | 8.0 | 9.7 | 0.00 | 0.28 | 0.00 | 93 | 1019.6 |
| 20260507082548 | 2 | 229 | 6.4 | 9.7 | 0.00 | 0.28 | 0.00 | 93 | 1019.7 |
| 20260507082051 | 2 | 239 | 4.8 | 8.0 | 0.00 | 0.28 | 0.00 | 93 | 1019.7 |
| 20260507081605 | 2 | 217 | 4.8 | 8.0 | 0.00 | 0.28 | 0.00 | 93 | 1019.8 |
| 20260507081048 | 2 | 229 | 3.2 | 6.4 | 0.00 | 0.28 | 0.00 | 93 | 1019.8 |
| 20260507080553 | 2 | 245 | 4.8 | 6.4 | 0.00 | 0.28 | 0.00 | 93 | 1020.0 |
| 20260507075549 | 2 | 246 | 4.8 | 6.4 | 0.00 | 0.30 | 0.00 | 92 | 1020.1 |
| 20260507075048 | 2 | 261 | 4.8 | 8.0 | 0.00 | 0.30 | 0.00 | 92 | 1020.2 |
| 20260507074607 | 2 | 242 | 4.8 | 8.0 | 0.00 | 0.30 | 0.00 | 93 | 1020.2 |
| 20260507074048 | 2 | 246 | 6.4 | 8.0 | 0.00 | 0.30 | 0.00 | 93 | 1020.2 |
| 20260507073549 | 2 | 262 | 4.8 | 6.4 | 0.00 | 0.30 | 0.00 | 92 | 1020.3 |
| 20260507073053 | 2 | 239 | 3.2 | 6.4 | 0.00 | 0.30 | 0.00 | 92 | 1020.4 |
| 20260507072549 | 2 | 251 | 3.2 | 6.4 | 0.00 | 0.30 | 0.00 | 92 | 1020.5 |
| 20260507072048 | 3 | 236 | 4.8 | 6.4 | 0.00 | 0.30 | 0.00 | 92 | 1020.5 |
| 20260507071553 | 3 | 259 | 4.8 | 6.4 | 0.00 | 0.30 | 0.00 | 92 | 1020.6 |
| 20260507071048 | 3 | 266 | 4.8 | 6.4 | 0.00 | 0.30 | 0.00 | 92 | 1020.7 |
| 20260507070549 | 3 | 241 | 4.8 | 8.0 | 0.00 | 0.30 | 0.00 | 92 | 1020.8 |
| 20260507070054 | 3 | 249 | 6.4 | 9.7 | 0.00 | 0.30 | 0.00 | 92 | 1020.8 |
| 20260507065548 | 3 | 253 | 6.4 | 9.7 | 0.00 | 0.36 | 0.00 | 92 | 1020.9 |
| 20260507065047 | 3 | 252 | 6.4 | 9.7 | 0.00 | 0.36 | 0.00 | 92 | 1020.8 |
| 20260507064557 | 3 | 236 | 6.4 | 9.7 | 0.00 | 0.36 | 0.00 | 92 | 1020.9 |
| 20260507064049 | 3 | 246 | 4.8 | 8.0 | 0.00 | 0.36 | 0.00 | 92 | 1021.0 |
| 20260507063548 | 3 | 248 | 4.8 | 8.0 | 0.00 | 0.36 | 0.00 | 92 | 1021.1 |
| 20260507063051 | 3 | 238 | 4.8 | 8.0 | 0.00 | 0.36 | 0.00 | 92 | 1021.0 |
| 20260507062548 | 3 | 248 | 6.4 | 8.0 | 0.00 | 0.36 | 0.00 | 92 | 1021.0 |
| 20260507062051 | 4 | 248 | 4.8 | 8.0 | 0.00 | 0.36 | 0.00 | 92 | 1021.0 |
| 20260507061601 | 4 | 238 | 6.4 | 8.0 | 0.00 | 0.36 | 0.00 | 92 | 1021.0 |
| 20260507061049 | 4 | 266 | 6.4 | 8.0 | 0.00 | 0.36 | 0.00 | 91 | 1021.1 |
| 20260507060548 | 4 | 262 | 4.8 | 8.0 | 0.00 | 0.36 | 0.00 | 91 | 1021.1 |
| 20260507060056 | 5 | 257 | 4.8 | 8.0 | 0.00 | 0.36 | 0.00 | 91 | 1021.1 |
| 20260507055550 | 5 | 255 | 6.4 | 8.0 | 0.00 | 0.38 | 0.00 | 91 | 1021.3 |
| 20260507055052 | 5 | 0 | 0.0 | 0.0 | 0.00 | 0.38 | 0.00 | 91 | 1021.3 |
| 20260507054636 | 5 | 0 | 0.0 | 0.0 | 0.00 | 0.38 | 0.00 | 92 | 1021.3 |
| 20260507054048 | 5 | 0 | 0.0 | 0.0 | 0.00 | 0.38 | 0.00 | 92 | 1021.3 |
| 20260507053550 | 5 | 0 | 0.0 | 0.0 | 0.00 | 0.38 | 0.00 | 91 | 1021.3 |
| 20260507053055 | 5 | 0 | 0.0 | 4.8 | 0.00 | 0.38 | 0.00 | 91 | 1021.3 |
| 20260507052547 | 5 | 0 | 0.0 | 6.4 | 0.00 | 0.38 | 0.00 | 91 | 1021.1 |
| 20260507052047 | 6 | 0 | 4.8 | 6.4 | 0.00 | 0.38 | 0.00 | 91 | 1021.1 |
| 20260507051552 | 6 | 257 | 4.8 | 9.7 | 0.00 | 0.38 | 0.00 | 91 | 1021.1 |
| 20260507051050 | 6 | 269 | 6.4 | 9.7 | 0.00 | 0.38 | 0.00 | 91 | 1021.3 |
| 20260507050549 | 6 | 273 | 6.4 | 9.7 | 0.00 | 0.38 | 0.00 | 91 | 1021.3 |
| 20260507050057 | 6 | 273 | 6.4 | 9.7 | 0.00 | 0.38 | 0.00 | 91 | 1021.3 |
| 20260507045548 | 6 | 264 | 4.8 | 9.7 | 0.00 | 0.38 | 0.38 | 91 | 1021.4 |
| 20260507045047 | 6 | 250 | 4.8 | 6.4 | 0.00 | 0.38 | 0.38 | 91 | 1021.3 |
| 20260507044600 | 6 | 250 | 3.2 | 8.0 | 0.00 | 0.38 | 0.38 | 91 | 1021.4 |
| 20260507044048 | 6 | 250 | 4.8 | 8.0 | 0.00 | 0.38 | 0.38 | 91 | 1021.4 |
| 20260507043548 | 6 | 264 | 6.4 | 8.0 | 0.00 | 0.38 | 0.38 | 91 | 1021.5 |
| 20260507043054 | 6 | 266 | 3.2 | 6.4 | 0.00 | 0.38 | 0.38 | 91 | 1021.5 |
| 20260507042547 | 6 | 262 | 3.2 | 6.4 | 0.00 | 0.38 | 0.38 | 91 | 1021.7 |
| 20260507042047 | 6 | 262 | 4.8 | 6.4 | 0.00 | 0.38 | 0.38 | 91 | 1021.6 |
| 20260507041602 | 6 | 0 | 0.0 | 0.0 | 0.00 | 0.38 | 0.38 | 91 | 1021.5 |
| 20260507041048 | 6 | 0 | 0.0 | 1.6 | 0.00 | 0.38 | 0.38 | 91 | 1021.5 |
| 20260507040547 | 6 | 0 | 0.0 | 1.6 | 0.00 | 0.38 | 0.38 | 91 | 1021.5 |
| 20260507040058 | 6 | 275 | 0.0 | 3.2 | 0.00 | 0.38 | 0.38 | 91 | 1021.5 |
| 20260507035547 | 6 | 0 | 0.0 | 3.2 | 0.00 | 0.38 | 0.38 | 91 | 1021.5 |
| 20260507035047 | 6 | 0 | 0.0 | 3.2 | 0.00 | 0.38 | 0.38 | 90 | 1021.5 |
| 20260507034558 | 6 | 0 | 0.0 | 3.2 | 0.00 | 0.38 | 0.38 | 90 | 1021.6 |
| 20260507034047 | 6 | 0 | 0.0 | 3.2 | 0.00 | 0.38 | 0.38 | 90 | 1021.5 |
| 20260507033549 | 6 | 306 | 1.6 | 3.2 | 0.00 | 0.38 | 0.38 | 90 | 1021.5 |
| 20260507033056 | 6 | 314 | 1.6 | 3.2 | 0.00 | 0.38 | 0.38 | 90 | 1021.4 |
| 20260507032549 | 6 | 320 | 0.0 | 3.2 | 0.00 | 0.38 | 0.38 | 89 | 1021.4 |
| 20260507032051 | 6 | 0 | 1.6 | 3.2 | 0.00 | 0.38 | 0.38 | 88 | 1021.4 |
| 20260507031605 | 6 | 280 | 3.2 | 3.2 | 0.00 | 0.38 | 0.38 | 88 | 1021.4 |
| 20260507031050 | 6 | 270 | 3.2 | 3.2 | 0.00 | 0.38 | 0.38 | 88 | 1021.2 |
| 20260507030547 | 7 | 269 | 3.2 | 4.8 | 0.00 | 0.38 | 0.38 | 88 | 1021.1 |
| 20260507030057 | 7 | 274 | 3.2 | 4.8 | 0.00 | 0.38 | 0.38 | 88 | 1021.0 |
| 20260507025549 | 7 | 301 | 3.2 | 4.8 | 0.00 | 0.38 | 0.38 | 88 | 1021.0 |
| 20260507025048 | 7 | 287 | 3.2 | 4.8 | 0.00 | 0.38 | 0.38 | 87 | 1020.9 |
| 20260507024556 | 7 | 302 | 1.6 | 3.2 | 0.00 | 0.38 | 0.38 | 87 | 1020.7 |
| 20260507024049 | 7 | 300 | 1.6 | 3.2 | 0.00 | 0.38 | 0.38 | 87 | 1020.7 |
| 20260507023548 | 7 | 0 | 1.6 | 3.2 | 0.00 | 0.38 | 0.38 | 86 | 1020.5 |
| 20260507023103 | 7 | 332 | 1.6 | 3.2 | 0.00 | 0.38 | 0.38 | 86 | 1020.5 |
| 20260507022548 | 7 | 339 | 0.0 | 4.8 | 0.00 | 0.38 | 0.38 | 85 | 1020.4 |
| 20260507022048 | 7 | 314 | 3.2 | 6.4 | 0.00 | 0.38 | 0.38 | 85 | 1020.4 |
| 20260507021554 | 7 | 306 | 3.2 | 6.4 | 0.00 | 0.38 | 0.38 | 84 | 1020.2 |
| 20260507021050 | 7 | 304 | 3.2 | 4.8 | 0.00 | 0.38 | 0.38 | 84 | 1020.1 |
| 20260507020548 | 7 | 313 | 3.2 | 4.8 | 0.00 | 0.38 | 0.38 | 84 | 1020.1 |
| 20260507020056 | 7 | 302 | 3.2 | 6.4 | 0.00 | 0.38 | 0.38 | 84 | 1020.1 |
| 20260507015548 | 7 | 300 | 3.2 | 6.4 | 0.00 | 0.38 | 0.38 | 83 | 1020.1 |
| 20260507015047 | 7 | 299 | 3.2 | 6.4 | 0.00 | 0.38 | 0.38 | 83 | 1020.2 |
| 20260507014604 | 7 | 305 | 3.2 | 9.7 | 0.00 | 0.38 | 0.38 | 83 | 1020.2 |
| 20260507014048 | 7 | 308 | 4.8 | 9.7 | 0.00 | 0.38 | 0.38 | 83 | 1020.2 |
| 20260507013547 | 7 | 294 | 6.4 | 9.7 | 0.00 | 0.38 | 0.38 | 82 | 1020.2 |
| 20260507013053 | 7 | 293 | 3.2 | 9.7 | 0.00 | 0.38 | 0.38 | 82 | 1020.4 |
| 20260507012548 | 8 | 288 | 6.4 | 9.7 | 0.00 | 0.38 | 0.38 | 81 | 1020.3 |
| 20260507012048 | 8 | 289 | 6.4 | 9.7 | 0.00 | 0.38 | 0.38 | 80 | 1020.2 |
| 20260507011552 | 8 | 285 | 3.2 | 4.8 | 0.00 | 0.38 | 0.38 | 80 | 1020.0 |
| 20260507011048 | 8 | 285 | 1.6 | 4.8 | 0.00 | 0.38 | 0.38 | 80 | 1019.9 |
| 20260507010548 | 8 | 285 | 1.6 | 4.8 | 0.00 | 0.38 | 0.38 | 78 | 1019.9 |
| 20260507010054 | 8 | 0 | 0.0 | 4.8 | 0.00 | 0.38 | 0.38 | 77 | 1019.9 |
| 20260507005548 | 8 | 0 | 0.0 | 6.4 | 0.00 | 0.38 | 0.38 | 76 | 1019.8 |
| 20260507005048 | 8 | 0 | 0.0 | 6.4 | 0.00 | 0.38 | 0.38 | 75 | 1019.8 |
| 20260507004552 | 8 | 0 | 0.0 | 0.0 | 0.00 | 0.38 | 0.38 | 75 | 1019.8 |
| 20260507004048 | 8 | 0 | 0.0 | 0.0 | 0.00 | 0.38 | 0.38 | 75 | 1019.7 |
| 20260507003548 | 8 | 0 | 0.0 | 0.0 | 0.00 | 0.38 | 0.38 | 75 | 1019.7 |
| 20260507003055 | 8 | 0 | 0.0 | 0.0 | 0.00 | 0.38 | 0.38 | 74 | 1019.8 |
| 20260507002548 | 8 | 0 | 0.0 | 0.0 | 0.00 | 0.38 | 0.38 | 74 | 1019.8 |
| 20260507002050 | 8 | 0 | 0.0 | 0.0 | 0.00 | 0.38 | 0.38 | 74 | 1019.8 |
| 20260507001551 | 8 | 0 | 0.0 | 3.2 | 0.00 | 0.38 | 0.38 | 74 | 1019.7 |
| 20260507001046 | 8 | 0 | 0.0 | 4.8 | 0.00 | 0.38 | 0.38 | 73 | 1019.8 |
| 20260507000552 | 8 | 0 | 1.6 | 4.8 | 0.00 | 0.38 | 0.38 | 74 | 1019.9 |
| 20260507000051 | 8 | 0 | 0.0 | 3.2 | 0.00 | 0.38 | 0.38 | 74 | 1019.8 |
| 20260506235547 | 8 | 0 | 0.0 | 3.2 | 0.00 | 0.38 | 0.38 | 74 | 1019.6 |
| 20260506235050 | 8 | 122 | 1.6 | 3.2 | 0.00 | 0.38 | 0.38 | 75 | 1019.6 |
| 20260506234554 | 8 | 0 | 0.0 | 1.6 | 0.00 | 0.38 | 0.38 | 75 | 1019.5 |
| 20260506234047 | 8 | 0 | 0.0 | 1.6 | 0.00 | 0.38 | 0.38 | 75 | 1019.6 |
| 20260506233547 | 8 | 0 | 0.0 | 6.4 | 0.00 | 0.38 | 0.38 | 75 | 1019.6 |
| 20260506233108 | 8 | 0 | 0.0 | 6.4 | 0.00 | 0.38 | 0.38 | 74 | 1019.7 |
| 20260506232549 | 8 | 0 | 0.0 | 1.6 | 0.00 | 0.38 | 0.38 | 74 | 1019.7 |
| 20260506232047 | 8 | 0 | 0.0 | 3.2 | 0.00 | 0.38 | 0.38 | 74 | 1019.6 |
| 20260506231550 | 8 | 0 | 0.0 | 3.2 | 0.00 | 0.38 | 0.38 | 75 | 1019.4 |
| 20260506231046 | 8 | 0 | 0.0 | 1.6 | 0.00 | 0.38 | 0.38 | 76 | 1019.3 |
| 20260506230547 | 8 | 312 | 0.0 | 3.2 | 0.00 | 0.38 | 0.38 | 75 | 1019.3 |
| 20260506230053 | 8 | 0 | 0.0 | 11.3 | 0.00 | 0.38 | 0.38 | 76 | 1019.5 |
| 20260506225547 | 8 | 312 | 3.2 | 11.3 | 0.00 | 0.38 | 0.38 | 76 | 1019.7 |
| 20260506225046 | 8 | 6 | 3.2 | 4.8 | 0.00 | 0.38 | 0.38 | 75 | 1019.5 |
| 20260506224550 | 8 | 0 | 0.0 | 4.8 | 0.00 | 0.38 | 0.38 | 78 | 1019.4 |
| 20260506224052 | 8 | 4 | 0.0 | 4.8 | 0.00 | 0.38 | 0.38 | 78 | 1019.4 |
| 20260506223552 | 8 | 0 | 0.0 | 6.4 | 0.00 | 0.38 | 0.38 | 80 | 1019.3 |
| 20260506223050 | 8 | 83 | 3.2 | 6.4 | 0.00 | 0.38 | 0.38 | 80 | 1019.2 |
| 20260506222549 | 8 | 89 | 1.6 | 6.4 | 0.00 | 0.38 | 0.38 | 81 | 1019.3 |
| 20260506222049 | 8 | 88 | 3.2 | 6.4 | 0.00 | 0.38 | 0.38 | 81 | 1019.4 |
| 20260506221553 | 8 | 82 | 0.0 | 6.4 | 0.00 | 0.38 | 0.38 | 81 | 1019.4 |
| 20260506221048 | 8 | 60 | 0.0 | 6.4 | 0.00 | 0.38 | 0.38 | 81 | 1019.5 |
| 20260506220547 | 7 | 0 | 3.2 | 6.4 | 0.00 | 0.38 | 0.38 | 81 | 1019.5 |
| 20260506220052 | 7 | 0 | 1.6 | 6.4 | 0.00 | 0.38 | 0.38 | 81 | 1019.5 |
| 20260506215549 | 7 | 0 | 1.6 | 6.4 | 0.00 | 0.38 | 0.38 | 82 | 1019.5 |
| 20260506215047 | 7 | 70 | 1.6 | 6.4 | 0.00 | 0.38 | 0.38 | 82 | 1019.6 |
| 20260506214554 | 7 | 34 | 3.2 | 9.7 | 0.00 | 0.38 | 0.38 | 81 | 1019.5 |
| 20260506214047 | 7 | 105 | 3.2 | 11.3 | 0.00 | 0.38 | 0.38 | 81 | 1019.6 |
| 20260506213546 | 7 | 85 | 4.8 | 12.9 | 0.00 | 0.38 | 0.38 | 81 | 1019.5 |
| 20260506213111 | 7 | 84 | 9.7 | 12.9 | 0.00 | 0.38 | 0.38 | 81 | 1019.5 |
| 20260506212549 | 7 | 91 | 3.2 | 14.5 | 0.00 | 0.38 | 0.38 | 82 | 1019.5 |
| 20260506212049 | 8 | 66 | 6.4 | 14.5 | 0.00 | 0.38 | 0.38 | 80 | 1019.5 |
| 20260506211554 | 8 | 91 | 4.8 | 9.7 | 0.00 | 0.38 | 0.38 | 81 | 1019.6 |
| 20260506211050 | 8 | 91 | 0.0 | 3.2 | 0.00 | 0.38 | 0.38 | 82 | 1019.7 |
| 20260506210547 | 8 | 0 | 1.6 | 8.0 | 0.00 | 0.38 | 0.38 | 82 | 1019.6 |
| 20260506210054 | 8 | 0 | 0.0 | 9.7 | 0.00 | 0.38 | 0.38 | 82 | 1019.8 |
| 20260506205548 | 7 | 113 | 3.2 | 9.7 | 0.00 | 0.38 | 0.38 | 82 | 1020.0 |
| 20260506205047 | 8 | 20 | 1.6 | 9.7 | 0.00 | 0.38 | 0.38 | 82 | 1020.0 |
| 20260506204559 | 8 | 0 | 1.6 | 11.3 | 0.00 | 0.38 | 0.38 | 84 | 1020.0 |
| 20260506204046 | 8 | 72 | 4.8 | 11.3 | 0.00 | 0.38 | 0.38 | 84 | 1020.0 |
| 20260506203550 | 8 | 59 | 4.8 | 9.7 | 0.00 | 0.38 | 0.38 | 85 | 1020.0 |
| 20260506203053 | 8 | 97 | 3.2 | 9.7 | 0.00 | 0.38 | 0.38 | 87 | 1020.0 |
| 20260506202549 | 8 | 94 | 0.0 | 9.7 | 0.00 | 0.38 | 0.38 | 88 | 1020.0 |
| 20260506202047 | 7 | 103 | 0.0 | 11.3 | 0.00 | 0.38 | 0.38 | 88 | 1020.1 |
| 20260506201553 | 7 | 62 | 1.6 | 14.5 | 0.00 | 0.38 | 0.38 | 89 | 1020.2 |
| 20260506201046 | 7 | 78 | 8.0 | 14.5 | 0.00 | 0.38 | 0.38 | 89 | 1020.2 |
| 20260506200546 | 7 | 68 | 4.8 | 12.9 | 0.00 | 0.38 | 0.38 | 91 | 1020.2 |
| 20260506200053 | 7 | 76 | 4.8 | 11.3 | 0.00 | 0.38 | 0.38 | 92 | 1020.3 |
| 20260506195549 | 7 | 100 | 4.8 | 14.5 | 0.03 | 0.38 | 0.38 | 92 | 1020.2 |
| 20260506195049 | 7 | 73 | 3.2 | 14.5 | 0.03 | 0.38 | 0.38 | 93 | 1020.2 |
| 20260506194628 | 6 | 115 | 8.0 | 16.1 | 0.03 | 0.38 | 0.38 | 93 | 1020.2 |
| 20260506194054 | 6 | 82 | 6.4 | 16.1 | 0.03 | 0.38 | 0.38 | 93 | 1020.2 |
| 20260506193549 | 6 | 69 | 1.6 | 11.3 | 0.03 | 0.38 | 0.38 | 93 | 1020.2 |
| 20260506193102 | 6 | 77 | 4.8 | 12.9 | 0.03 | 0.38 | 0.38 | 93 | 1020.3 |
| 20260506192547 | 6 | 46 | 6.4 | 12.9 | 0.03 | 0.38 | 0.38 | 93 | 1020.2 |
| 20260506192051 | 6 | 70 | 6.4 | 12.9 | 0.03 | 0.38 | 0.38 | 93 | 1020.2 |
| 20260506191551 | 6 | 103 | 6.4 | 11.3 | 0.03 | 0.38 | 0.38 | 93 | 1020.2 |
| 20260506191046 | 6 | 127 | 3.2 | 11.3 | 0.03 | 0.38 | 0.38 | 93 | 1020.2 |
| 20260506190547 | 6 | 73 | 3.2 | 11.3 | 0.03 | 0.38 | 0.38 | 93 | 1020.3 |
| 20260506190052 | 6 | 77 | 4.8 | 11.3 | 0.03 | 0.38 | 0.38 | 93 | 1020.3 |
| 20260506185546 | 6 | 63 | 3.2 | 11.3 | 0.00 | 0.36 | 0.36 | 93 | 1020.4 |
| 20260506185046 | 6 | 75 | 1.6 | 9.7 | 0.00 | 0.36 | 0.36 | 93 | 1020.5 |
| 20260506184550 | 6 | 92 | 3.2 | 9.7 | 0.00 | 0.36 | 0.36 | 93 | 1020.6 |
| 20260506184047 | 6 | 70 | 1.6 | 9.7 | 0.00 | 0.36 | 0.36 | 93 | 1020.6 |
| 20260506183549 | 5 | 0 | 0.0 | 9.7 | 0.03 | 0.36 | 0.36 | 93 | 1020.7 |
| 20260506183057 | 5 | 58 | 4.8 | 9.7 | 0.03 | 0.36 | 0.36 | 93 | 1020.7 |
| 20260506182548 | 5 | 56 | 3.2 | 9.7 | 0.03 | 0.36 | 0.36 | 93 | 1020.7 |
| 20260506182048 | 5 | 0 | 4.8 | 14.5 | 0.03 | 0.36 | 0.36 | 93 | 1020.8 |
| 20260506181556 | 5 | 67 | 3.2 | 14.5 | 0.03 | 0.36 | 0.36 | 93 | 1020.9 |
| 20260506181049 | 5 | 80 | 4.8 | 12.9 | 0.03 | 0.36 | 0.36 | 93 | 1020.9 |
| 20260506180550 | 5 | 72 | 3.2 | 12.9 | 0.03 | 0.36 | 0.36 | 93 | 1021.0 |
| 20260506175550 | 5 | 88 | 1.6 | 11.3 | 0.05 | 0.36 | 0.36 | 93 | 1021.0 |
| 20260506175046 | 5 | 0 | 4.8 | 11.3 | 0.05 | 0.36 | 0.36 | 93 | 1021.0 |
| 20260506174555 | 5 | 83 | 1.6 | 11.3 | 0.05 | 0.36 | 0.36 | 93 | 1021.0 |
| 20260506174048 | 5 | 50 | 4.8 | 16.1 | 0.05 | 0.36 | 0.36 | 93 | 1021.0 |
| 20260506173547 | 5 | 84 | 4.8 | 16.1 | 0.05 | 0.33 | 0.33 | 93 | 1021.0 |
| 20260506173057 | 5 | 72 | 3.2 | 8.0 | 0.05 | 0.33 | 0.33 | 93 | 1021.0 |
| 20260506172546 | 5 | 77 | 0.0 | 11.3 | 0.05 | 0.33 | 0.33 | 93 | 1020.9 |
| 20260506172046 | 5 | 0 | 1.6 | 11.3 | 0.05 | 0.33 | 0.33 | 93 | 1020.9 |
| 20260506171557 | 5 | 88 | 3.2 | 11.3 | 0.05 | 0.33 | 0.33 | 93 | 1020.9 |
| 20260506171054 | 5 | 58 | 1.6 | 11.3 | 0.05 | 0.33 | 0.33 | 93 | 1020.9 |
| 20260506170549 | 5 | 0 | 4.8 | 12.9 | 0.05 | 0.33 | 0.33 | 93 | 1020.9 |
| 20260506170103 | 5 | 0 | 1.6 | 12.9 | 0.08 | 0.33 | 0.33 | 93 | 1020.8 |
| 20260506165547 | 5 | 41 | 3.2 | 12.9 | 0.05 | 0.30 | 0.30 | 93 | 1020.9 |
| 20260506165047 | 5 | 55 | 4.8 | 11.3 | 0.05 | 0.30 | 0.30 | 93 | 1020.8 |
| 20260506164551 | 5 | 57 | 3.2 | 11.3 | 0.05 | 0.30 | 0.30 | 93 | 1020.8 |
| 20260506164051 | 5 | 77 | 3.2 | 11.3 | 0.05 | 0.30 | 0.30 | 93 | 1020.8 |
| 20260506163547 | 5 | 28 | 3.2 | 11.3 | 0.03 | 0.28 | 0.28 | 93 | 1020.8 |
| 20260506163111 | 5 | 8 | 3.2 | 16.1 | 0.05 | 0.28 | 0.28 | 93 | 1020.6 |
| 20260506162548 | 5 | 49 | 6.4 | 16.1 | 0.05 | 0.28 | 0.28 | 93 | 1020.5 |
| 20260506162051 | 5 | 38 | 4.8 | 11.3 | 0.05 | 0.28 | 0.28 | 93 | 1020.5 |
| 20260506161551 | 5 | 0 | 3.2 | 9.7 | 0.05 | 0.28 | 0.28 | 93 | 1020.5 |
| 20260506161048 | 5 | 15 | 0.0 | 3.2 | 0.05 | 0.28 | 0.28 | 93 | 1020.4 |
| 20260506160548 | 5 | 0 | 0.0 | 8.0 | 0.05 | 0.28 | 0.28 | 93 | 1020.3 |
| 20260506160056 | 5 | 0 | 0.0 | 14.5 | 0.03 | 0.25 | 0.25 | 93 | 1020.1 |
| 20260506155552 | 5 | 25 | 1.6 | 14.5 | 0.05 | 0.25 | 0.25 | 93 | 1020.0 |
| 20260506155049 | 5 | 62 | 0.0 | 8.0 | 0.05 | 0.25 | 0.25 | 93 | 1020.1 |
| 20260506154615 | 5 | 44 | 3.2 | 8.0 | 0.05 | 0.25 | 0.25 | 93 | 1020.2 |
| 20260506154049 | 5 | 0 | 1.6 | 6.4 | 0.05 | 0.25 | 0.25 | 93 | 1020.1 |
| 20260506153547 | 5 | 0 | 1.6 | 8.0 | 0.05 | 0.25 | 0.25 | 93 | 1020.1 |
| 20260506153058 | 5 | 88 | 0.0 | 9.7 | 0.03 | 0.23 | 0.23 | 93 | 1020.0 |
| 20260506152548 | 4 | 0 | 3.2 | 11.3 | 0.03 | 0.23 | 0.23 | 93 | 1020.0 |
| 20260506152049 | 5 | 75 | 4.8 | 11.3 | 0.03 | 0.23 | 0.23 | 93 | 1020.0 |
| 20260506151558 | 5 | 14 | 3.2 | 9.7 | 0.03 | 0.23 | 0.23 | 93 | 1020.0 |
| 20260506151047 | 5 | 94 | 1.6 | 8.0 | 0.03 | 0.23 | 0.23 | 93 | 1020.0 |
| 20260506150549 | 5 | 0 | 3.2 | 9.7 | 0.03 | 0.23 | 0.23 | 93 | 1019.8 |
| 20260506150051 | 4 | 82 | 4.8 | 12.9 | 0.03 | 0.23 | 0.23 | 93 | 1019.8 |
| 20260506145549 | 4 | 64 | 3.2 | 12.9 | 0.00 | 0.20 | 0.20 | 93 | 1019.8 |
| 20260506145049 | 4 | 56 | 3.2 | 12.9 | 0.00 | 0.20 | 0.20 | 93 | 1019.8 |